TimeMST,TemperatureF,Dew PointF,Humidity,Sea Level PressureIn,VisibilityMPH,Wind Direction,Wind SpeedMPH,Gust SpeedMPH,PrecipitationIn,Events,Conditions,WindDirDegrees,DateUTC
12:15 AM,48.2,17.6,30,30.14,10.0,NNE,8.1,-,N/A,,Clear,30,2013-01-19 07:15:00
12:55 AM,48.2,17.6,30,30.14,10.0,North,9.2,-,N/A,,Clear,360,2013-01-19 07:55:00
1:15 AM,48.2,17.6,30,30.14,10.0,North,8.1,-,N/A,,Clear,350,2013-01-19 08:15:00
1:35 AM,46.4,17.6,32,30.14,10.0,North,6.9,-,N/A,,Clear,360,2013-01-19 08:35:00
1:55 AM,46.4,17.6,32,30.14,10.0,North,6.9,-,N/A,,Clear,350,2013-01-19 08:55:00
2:15 AM,46.4,17.6,32,30.15,10.0,NNE,9.2,-,N/A,,Clear,20,2013-01-19 09:15:00
2:35 AM,48.2,17.6,30,30.15,10.0,NNE,8.1,-,N/A,,Clear,20,2013-01-19 09:35:00
2:55 AM,48.2,17.6,30,30.15,10.0,NNE,6.9,-,N/A,,Clear,20,2013-01-19 09:55:00
3:15 AM,46.4,17.6,32,30.15,10.0,North,5.8,-,N/A,,Clear,10,2013-01-19 10:15:00
3:35 AM,42.8,17.6,36,30.15,10.0,ENE,4.6,-,N/A,,Clear,60,2013-01-19 10:35:00
3:55 AM,44.6,19.4,37,30.16,10.0,NNE,4.6,-,N/A,,Clear,20,2013-01-19 10:55:00
4:15 AM,44.6,17.6,34,30.16,10.0,North,6.9,-,N/A,,Clear,360,2013-01-19 11:15:00
4:35 AM,42.8,19.4,39,30.16,10.0,NE,8.1,-,N/A,,Clear,50,2013-01-19 11:35:00
5:55 AM,42.8,17.6,36,30.17,10.0,North,8.1,-,N/A,,Clear,360,2013-01-19 12:55:00
6:15 AM,41.0,17.6,39,30.18,10.0,North,6.9,-,N/A,,Clear,350,2013-01-19 13:15:00
6:55 AM,39.2,17.6,42,30.18,10.0,NNW,6.9,-,N/A,,Clear,340,2013-01-19 13:55:00
7:35 AM,37.4,17.6,45,30.20,9.0,North,4.6,-,N/A,,Clear,350,2013-01-19 14:35:00
8:35 AM,48.2,19.4,32,30.22,10.0,NW,6.9,-,N/A,,Clear,310,2013-01-19 15:35:00
8:55 AM,48.2,19.4,32,30.23,10.0,NW,5.8,-,N/A,,Clear,310,2013-01-19 15:55:00
9:15 AM,48.2,19.4,32,30.23,10.0,NNW,5.8,-,N/A,,Clear,330,2013-01-19 16:15:00
9:55 AM,55.4,19.4,25,30.24,10.0,NW,4.6,-,N/A,,Clear,310,2013-01-19 16:55:00
10:15 AM,57.2,19.4,23,30.25,10.0,NNW,3.5,-,N/A,,Clear,330,2013-01-19 17:15:00
10:35 AM,59.0,19.4,22,30.25,10.0,Calm,Calm,-,N/A,,Clear,0,2013-01-19 17:35:00
10:55 AM,60.8,19.4,20,30.24,10.0,NW,4.6,-,N/A,,Clear,310,2013-01-19 17:55:00
11:15 AM,62.6,21.2,20,30.23,10.0,NW,3.5,-,N/A,,Clear,310,2013-01-19 18:15:00
11:35 AM,62.6,19.4,19,30.22,10.0,North,3.5,-,N/A,,Clear,10,2013-01-19 18:35:00
11:55 AM,64.4,21.2,19,30.21,10.0,Calm,Calm,-,N/A,,Clear,0,2013-01-19 18:55:00
12:15 PM,66.2,19.4,17,30.19,10.0,NW,3.5,-,N/A,,Clear,320,2013-01-19 19:15:00
12:35 PM,66.2,19.4,17,30.18,10.0,NNW,3.5,-,N/A,,Clear,340,2013-01-19 19:35:00
12:55 PM,66.2,19.4,17,30.17,10.0,Calm,Calm,-,N/A,,Clear,0,2013-01-19 19:55:00
1:15 PM,68.0,19.4,16,30.16,10.0,Calm,Calm,-,N/A,,Clear,0,2013-01-19 20:15:00
1:55 PM,68.0,19.4,16,30.15,10.0,NNE,3.5,-,N/A,,Clear,30,2013-01-19 20:55:00
2:15 PM,69.8,19.4,15,30.14,10.0,Calm,Calm,-,N/A,,Clear,0,2013-01-19 21:15:00
2:35 PM,69.8,19.4,15,30.14,10.0,Calm,Calm,-,N/A,,Clear,0,2013-01-19 21:35:00
2:55 PM,71.6,19.4,14,30.13,10.0,West,3.5,-,N/A,,Clear,270,2013-01-19 21:55:00
3:15 PM,71.6,19.4,14,30.13,10.0,West,3.5,-,N/A,,Clear,270,2013-01-19 22:15:00
3:35 PM,71.6,19.4,14,30.13,10.0,Calm,Calm,-,N/A,,Clear,0,2013-01-19 22:35:00
3:55 PM,71.6,21.2,15,30.12,10.0,South,3.5,-,N/A,,Clear,190,2013-01-19 22:55:00
4:15 PM,73.4,19.4,13,30.12,10.0,Calm,Calm,-,N/A,,Clear,0,2013-01-19 23:15:00
4:35 PM,73.4,19.4,13,30.12,10.0,Calm,Calm,-,N/A,,Clear,0,2013-01-19 23:35:00
4:55 PM,73.4,19.4,13,30.12,10.0,Calm,Calm,-,N/A,,Clear,0,2013-01-19 23:55:00
5:15 PM,71.6,21.2,15,30.12,10.0,West,4.6,-,N/A,,Clear,260,2013-01-20 00:15:00
5:35 PM,68.0,23.0,18,30.12,10.0,WSW,3.5,-,N/A,,Clear,250,2013-01-20 00:35:00
5:55 PM,66.2,21.2,18,30.12,10.0,Calm,Calm,-,N/A,,Clear,0,2013-01-20 00:55:00
6:15 PM,64.4,19.4,18,30.12,10.0,WNW,4.6,-,N/A,,Clear,300,2013-01-20 01:15:00
6:35 PM,62.6,19.4,19,30.12,5.0,WNW,9.2,-,N/A,,Clear,290,2013-01-20 01:35:00
6:55 PM,59.0,19.4,22,30.12,8.0,NW,6.9,-,N/A,,Clear,310,2013-01-20 01:55:00
7:15 PM,59.0,19.4,22,30.13,10.0,NW,8.1,-,N/A,,Clear,320,2013-01-20 02:15:00
7:35 PM,55.4,19.4,25,30.13,9.0,NNW,9.2,-,N/A,,Clear,330,2013-01-20 02:35:00
7:55 PM,55.4,17.6,23,30.13,10.0,NNW,9.2,-,N/A,,Clear,340,2013-01-20 02:55:00
8:15 PM,55.4,19.4,25,30.14,10.0,NW,8.1,-,N/A,,Clear,320,2013-01-20 03:15:00
8:55 PM,55.4,17.6,23,30.14,10.0,NNW,9.2,-,N/A,,Clear,340,2013-01-20 03:55:00
9:15 PM,55.4,17.6,23,30.14,10.0,NNW,8.1,-,N/A,,Clear,340,2013-01-20 04:15:00
9:35 PM,55.4,19.4,25,30.14,10.0,North,3.5,-,N/A,,Clear,350,2013-01-20 04:35:00
9:55 PM,53.6,17.6,24,30.14,10.0,North,9.2,-,N/A,,Clear,350,2013-01-20 04:55:00
10:15 PM,50.0,17.6,28,30.15,10.0,North,3.5,-,N/A,,Clear,10,2013-01-20 05:15:00
10:35 PM,51.8,17.6,26,30.15,10.0,NW,8.1,-,N/A,,Clear,320,2013-01-20 05:35:00
10:55 PM,50.0,19.4,30,30.15,10.0,NNE,6.9,-,N/A,,Clear,20,2013-01-20 05:55:00
11:15 PM,50.0,17.6,28,30.15,10.0,NE,5.8,-,N/A,,Clear,40,2013-01-20 06:15:00
11:35 PM,50.0,17.6,28,30.15,10.0,North,5.8,-,N/A,,Clear,10,2013-01-20 06:35:00
11:55 PM,50.0,17.6,28,30.15,10.0,North,8.1,-,N/A,,Clear,350,2013-01-20 06:55:00